sat.trackr.live / text

‹ back to catalog

STARLINK-32606

NORAD 61978 · 2024-210V

PAYLOAD ACTIVE UNKNOWN

§ Identity

Operator
Country
US
Launch date
2024-11-14
Launch site
AFETR
Launch vehicle
Mass (kg)
RCS (m²)

Purposes: comms

External: N2YO · Heavens-Above · Gunter

§ Orbital elements

Epoch: 2026-09-21T00:09:39.339648Z

Period
94.27 min
Inclination
42.9994°
Eccentricity
0.0000325
Mean motion
15.27595882 rev/d
Perigee alt
482.8 km
Apogee alt
483.2 km
Semi-major
6,861.1 km
B*
3.5422e-4
RAAN
156.5598°
Arg perigee
219.6388°
Mean anomaly
140.4440°
Rev number
10,475

§ Raw data

STARLINK-326061 61978U 24210V   26264.00670532  .00009503  00000+0  35422-3 0  99982 61978  42.9994 156.5598 0000325 219.6388 140.4440 15.27595882104752

JSON: /api/v1/satellites/61978 · /tle

For live sub-satellite position, see the globe view (requires WebGL).

§ Visibility from observer

Set your observer location to see the next 7 days of passes ≥ 10°. The values pass through the URL so the page stays shareable.

No JS? Fill the form by hand. The geolocation button needs JavaScript.